HorshamWeather.Com Historical Data
 
Daily Summary for April 27, 2015 Units:  English    Metric   Both
« Previous Day
Next Day »
Daily Weekly Monthly Yearly Custom
  Current: High: Low: Average:
Temperature: 51.5 °F 51.5 °F 39.9 °F 43.5 °F
Dew Point: 37.7 °F 37.8 °F 30.6 °F 32.8 °F
Humidity: 59% 72% 57% 66%
Wind Speed: 0.0mph 6.0mph 1.0mph 1.7mph
Wind Gust: 3.0mph 11.0mph - -
WindCalm - - West
Pressure: 29.74 in 29.74 in 29.71 in -
Precipitation: 0.00 in      
Historical Graphs
 
 
Tabular Data for April 27, 2015
Time Temperature Dew Point Pressure Wind Wind Speed Wind Gust Humidity Rainfall Rate (Hourly)
00:05 44.2 °F 30.8 °F 29.73 in NNW 1.0 mph 1.0 mph 59% 0.00 in
00:10 44.0 °F 30.6 °F 29.74 in NNW 1.0 mph 2.0 mph 59% 0.00 in
00:15 43.8 °F 30.8 °F 29.74 in NNW 1.0 mph 1.0 mph 60% 0.00 in
00:20 43.6 °F 30.6 °F 29.74 in Calm   1.0 mph 60% 0.00 in
00:25 43.5 °F 31.0 °F 29.74 in Calm   1.0 mph 61% 0.00 in
00:30 43.3 °F 31.2 °F 29.74 in NNW 1.0 mph 1.0 mph 62% 0.00 in
00:35 43.1 °F 31.0 °F 29.74 in Calm   1.0 mph 62% 0.00 in
00:40 42.9 °F 31.2 °F 29.74 in Calm   1.0 mph 63% 0.00 in
00:45 42.8 °F 30.7 °F 29.74 in Calm   1.0 mph 62% 0.00 in
00:50 42.6 °F 30.9 °F 29.74 in Calm   1.0 mph 63% 0.00 in
00:55 42.4 °F 30.7 °F 29.74 in Calm   1.0 mph 63% 0.00 in
01:00 42.2 °F 30.9 °F 29.74 in Calm     64% 0.00 in
01:05 42.1 °F 30.8 °F 29.74 in Calm     64% 0.00 in
01:10 41.9 °F 30.6 °F 29.74 in Calm   1.0 mph 64% 0.00 in
01:15 41.8 °F 30.9 °F 29.74 in Calm     65% 0.00 in
01:20 41.7 °F 30.8 °F 29.74 in Calm     65% 0.00 in
01:25 41.6 °F 30.7 °F 29.74 in Calm     65% 0.00 in
01:30 41.5 °F 31.0 °F 29.74 in Calm     66% 0.00 in
01:35 41.4 °F 31.3 °F 29.74 in Calm     67% 0.00 in
01:40 41.3 °F 30.8 °F 29.74 in Calm     66% 0.00 in
01:45 41.2 °F 31.1 °F 29.74 in Calm   1.0 mph 67% 0.00 in
01:55 41.1 °F 31.0 °F 29.74 in Calm   1.0 mph 67% 0.00 in
02:10 41.1 °F 31.0 °F 29.74 in Calm   1.0 mph 67% 0.00 in
02:20 41.1 °F 31.4 °F 29.74 in Calm   1.0 mph 68% 0.00 in
02:25 41.1 °F 31.4 °F 29.73 in Calm   1.0 mph 68% 0.00 in
02:30 40.9 °F 31.2 °F 29.73 in Calm     68% 0.00 in
02:35 40.9 °F 31.2 °F 29.73 in Calm     68% 0.00 in
02:40 40.8 °F 31.1 °F 29.73 in Calm     68% 0.00 in
02:45 40.7 °F 31.0 °F 29.73 in Calm   1.0 mph 68% 0.00 in
02:50 40.6 °F 30.9 °F 29.73 in Calm   1.0 mph 68% 0.00 in
02:55 40.5 °F 30.8 °F 29.73 in Calm   2.0 mph 68% 0.00 in
03:00 40.4 °F 30.7 °F 29.72 in Calm   1.0 mph 68% 0.00 in
03:05 40.4 °F 31.0 °F 29.72 in Calm   2.0 mph 69% 0.00 in
03:10 40.3 °F 31.0 °F 29.72 in Calm   1.0 mph 69% 0.00 in
03:15 40.3 °F 31.0 °F 29.72 in Calm   1.0 mph 69% 0.00 in
03:20 40.2 °F 30.9 °F 29.72 in Calm   1.0 mph 69% 0.00 in
03:25 40.1 °F 30.8 °F 29.72 in Calm   1.0 mph 69% 0.00 in
03:30 40.1 °F 30.8 °F 29.72 in Calm   1.0 mph 69% 0.00 in
03:35 40.0 °F 31.0 °F 29.72 in Calm   2.0 mph 70% 0.00 in
03:40 40.0 °F 31.0 °F 29.72 in Calm   2.0 mph 70% 0.00 in
03:45 40.0 °F 30.7 °F 29.72 in Calm   2.0 mph 69% 0.00 in
03:50 40.0 °F 30.7 °F 29.72 in Calm   1.0 mph 69% 0.00 in
03:55 40.0 °F 30.7 °F 29.72 in Calm   1.0 mph 69% 0.00 in
04:00 40.1 °F 30.8 °F 29.72 in Calm   1.0 mph 69% 0.00 in
04:05 40.0 °F 30.7 °F 29.72 in Calm   1.0 mph 69% 0.00 in
04:10 40.0 °F 30.7 °F 29.72 in Calm   1.0 mph 69% 0.00 in
04:15 40.0 °F 31.0 °F 29.72 in Calm     70% 0.00 in
04:20 40.0 °F 30.7 °F 29.72 in Calm   2.0 mph 69% 0.00 in
04:25 40.0 °F 31.0 °F 29.72 in Calm   2.0 mph 70% 0.00 in
04:30 39.9 °F 30.9 °F 29.72 in Calm   2.0 mph 70% 0.00 in
04:35 39.9 °F 30.9 °F 29.72 in Calm   1.0 mph 70% 0.00 in
04:40 39.9 °F 31.3 °F 29.72 in NW 1.0 mph 2.0 mph 71% 0.00 in
04:45 40.0 °F 31.4 °F 29.72 in Calm   2.0 mph 71% 0.00 in
04:50 40.1 °F 31.5 °F 29.72 in Calm   1.0 mph 71% 0.00 in
04:55 40.3 °F 31.7 °F 29.72 in Calm   1.0 mph 71% 0.00 in
05:00 40.5 °F 31.9 °F 29.72 in Calm   1.0 mph 71% 0.00 in
05:05 40.7 °F 32.0 °F 29.72 in Calm   1.0 mph 71% 0.00 in
05:10 40.9 °F 32.6 °F 29.72 in Calm   3.0 mph 72% 0.00 in
05:15 41.2 °F 32.9 °F 29.71 in WNW 1.0 mph 3.0 mph 72% 0.00 in
05:20 41.5 °F 32.8 °F 29.71 in NW 1.0 mph 3.0 mph 71% 0.00 in
05:25 41.8 °F 32.8 °F 29.71 in Calm   2.0 mph 70% 0.00 in
05:30 42.1 °F 32.7 °F 29.71 in Calm   2.0 mph 69% 0.00 in
05:40 42.6 °F 33.2 °F 29.71 in WNW 1.0 mph 2.0 mph 69% 0.00 in
05:45 42.8 °F 33.0 °F 29.71 in WNW 1.0 mph 2.0 mph 68% 0.00 in
05:50 43.0 °F 33.2 °F 29.72 in Calm   1.0 mph 68% 0.00 in
05:55 43.1 °F 33.3 °F 29.71 in Calm   3.0 mph 68% 0.00 in
06:00 43.3 °F 33.8 °F 29.71 in NNW 1.0 mph 3.0 mph 69% 0.00 in
06:05 43.3 °F 33.1 °F 29.71 in NNW 1.0 mph 2.0 mph 67% 0.00 in
06:10 43.4 °F 33.9 °F 29.71 in WNW 1.0 mph 3.0 mph 69% 0.00 in
06:15 43.5 °F 33.7 °F 29.72 in NW 1.0 mph 3.0 mph 68% 0.00 in
06:20 43.6 °F 33.8 °F 29.72 in WNW 1.0 mph 2.0 mph 68% 0.00 in
06:25 43.7 °F 33.5 °F 29.72 in Calm   1.0 mph 67% 0.00 in
06:30 43.8 °F 33.6 °F 29.72 in Calm   2.0 mph 67% 0.00 in
06:35 43.9 °F 33.7 °F 29.72 in WNW 1.0 mph 2.0 mph 67% 0.00 in
06:40 44.0 °F 33.8 °F 29.72 in WNW 1.0 mph 3.0 mph 67% 0.00 in
06:45 44.1 °F 34.2 °F 29.72 in WNW 1.0 mph 2.0 mph 68% 0.00 in
06:50 44.2 °F 34.3 °F 29.72 in Calm   1.0 mph 68% 0.00 in
06:55 44.2 °F 34.0 °F 29.72 in WNW 1.0 mph 4.0 mph 67% 0.00 in
07:00 44.3 °F 34.4 °F 29.72 in Calm   2.0 mph 68% 0.00 in
07:05 44.4 °F 34.1 °F 29.72 in WNW 1.0 mph 5.0 mph 67% 0.00 in
07:10 44.6 °F 34.3 °F 29.73 in NW 1.0 mph 5.0 mph 67% 0.00 in
07:15 44.9 °F 35.0 °F 29.73 in Calm   1.0 mph 68% 0.00 in
07:20 45.1 °F 34.8 °F 29.73 in NW 1.0 mph 2.0 mph 67% 0.00 in
07:25 45.4 °F 35.1 °F 29.73 in WNW 1.0 mph 3.0 mph 67% 0.00 in
07:30 46.0 °F 35.3 °F 29.73 in WNW 2.0 mph 5.0 mph 66% 0.00 in
07:35 46.5 °F 35.4 °F 29.73 in North 2.0 mph 4.0 mph 65% 0.00 in
07:40 46.9 °F 35.0 °F 29.73 in NW 2.0 mph 5.0 mph 63% 0.00 in
07:52 47.3 °F 35.8 °F 29.73 in North 2.0 mph 8.0 mph 64% 0.00 in
07:57 47.7 °F 35.3 °F 29.73 in WNW 2.0 mph 3.0 mph 62% 0.00 in
08:02 47.8 °F 35.8 °F 29.73 in North 2.0 mph 3.0 mph 63% 0.00 in
08:07 48.0 °F 35.6 °F 29.73 in NW 1.0 mph 2.0 mph 62% 0.00 in
08:12 48.1 °F 35.7 °F 29.73 in NNW 2.0 mph 3.0 mph 62% 0.00 in
08:17 48.3 °F 35.5 °F 29.73 in North 3.0 mph 8.0 mph 61% 0.00 in
08:22 48.5 °F 35.7 °F 29.73 in NW 3.0 mph 4.0 mph 61% 0.00 in
08:27 48.8 °F 36.0 °F 29.73 in NW 3.0 mph 7.0 mph 61% 0.00 in
08:32 49.2 °F 35.9 °F 29.73 in NNW 1.0 mph 6.0 mph 60% 0.00 in
08:37 49.7 °F 37.2 °F 29.73 in NW 2.0 mph 5.0 mph 62% 0.00 in
08:42 50.0 °F 35.8 °F 29.73 in WNW 2.0 mph 6.0 mph 58% 0.00 in
08:47 50.2 °F 36.0 °F 29.73 in North 3.0 mph 11.0 mph 58% 0.00 in
08:52 50.3 °F 36.1 °F 29.74 in Calm   4.0 mph 58% 0.00 in
08:57 50.4 °F 36.2 °F 29.74 in NNW 2.0 mph 6.0 mph 58% 0.00 in
09:02 50.6 °F 36.4 °F 29.74 in West 6.0 mph 8.0 mph 58% 0.00 in
09:07 50.6 °F 36.4 °F 29.73 in NNE 3.0 mph 9.0 mph 58% 0.00 in
09:12 50.7 °F 36.9 °F 29.73 in NNW 3.0 mph 6.0 mph 59% 0.00 in
09:17 50.9 °F 36.7 °F 29.74 in WNW 2.0 mph 10.0 mph 58% 0.00 in
09:22 51.2 °F 37.8 °F 29.74 in NNE 3.0 mph 9.0 mph 60% 0.00 in
09:27 51.4 °F 36.7 °F 29.74 in NNE 3.0 mph 6.0 mph 57% 0.00 in
09:32 51.5 °F 37.7 °F 29.74 in Calm   3.0 mph 59% 0.00 in
HorshamWeather.Com
Compliments of Weather Underground